Orbital Elements at Epoch 2459000.5 (2020-May-31.0) TDB
Reference: JPL 20 (heliocentric ecliptic J2000)
Element | Value | Uncertainty (1-sigma) | Units |
e | .118259898535563 | 3.3462e-08 | |
a | 2.738618294993551 | 1.6298e-08 | au |
q | 2.414749573299977 | 9.6373e-08 | au |
i | 13.10764770854371 | 4.6838e-06 | deg |
node | 216.6827758840609 | 1.6095e-05 | deg |
peri | 256.3743098292873 | 2.6649e-05 | deg |
M | 219.0450706347757 | 2.3333e-05 | deg |
tp | 2459648.646905674222 (2022-Mar-10.14690567) | 0.00010986 | TDB |
period | 1655.372303001463 4.53 | 1.4778e-05 4.046e-08 | d yr |
n | .2174737364804646 | 1.9414e-09 | deg/d |
Q | 3.062487016687125 | 1.8226e-08 | au |
|
| | Orbit Determination Parameters
Additional Information
|